sat.trackr.live / text

‹ back to catalog

STARLINK-4138

NORAD 53535 · 2022-101J

PAYLOAD ACTIVE UNKNOWN

§ Identity

Operator
Country
US
Launch date
2022-08-19
Launch site
AFETR
Launch vehicle
Mass (kg)
RCS (m²)

Purposes: comms

External: N2YO · Heavens-Above · Gunter

§ Orbital elements

Epoch: 2026-05-25T02:28:04.281312Z

Period
95.44 min
Inclination
53.2155°
Eccentricity
0.0001410
Mean motion
15.08840589 rev/d
Perigee alt
538.8 km
Apogee alt
540.7 km
Semi-major
6,917.9 km
B*
6.0504e-5
RAAN
91.0853°
Arg perigee
80.2804°
Mean anomaly
279.8348°
Rev number
20,770

§ Raw data

STARLINK-41381 53535U 22101J   26145.10282733  .00000675  00000+0  60504-4 0  99972 53535  53.2155  91.0853 0001410  80.2804 279.8348 15.08840589207703

JSON: /api/v1/satellites/53535 · /tle

For live sub-satellite position, see the globe view (requires WebGL).

§ Visibility from observer

Set your observer location to see the next 7 days of passes ≥ 10°. The values pass through the URL so the page stays shareable.

No JS? Fill the form by hand. The geolocation button needs JavaScript.